Time,TemperatureF,DewpointF,PressureIn,WindDirection,WindDirectionDegrees,WindSpeedMPH,WindSpeedGustMPH,Humidity,HourlyPrecipIn,Conditions,Clouds,dailyrainin,SoftwareType,DateUTC
2013-01-18 00:08:00,43.1,30.0,30.17,ESE,116,0.0,-999.0,60,-99.99,,,0.00,weatherlink.com 1.10,2013-01-18 08:08:00,
2013-01-18 00:23:00,42.8,30.0,30.17,ESE,116,0.0,-999.0,61,-99.99,,,0.00,weatherlink.com 1.10,2013-01-18 08:23:00,
2013-01-18 00:38:00,42.6,30.0,30.17,ESE,117,0.0,-999.0,62,-99.99,,,0.00,weatherlink.com 1.10,2013-01-18 08:38:00,
2013-01-18 00:53:00,42.6,31.0,30.17,ESE,116,0.0,-999.0,64,-99.99,,,0.00,weatherlink.com 1.10,2013-01-18 08:53:00,
2013-01-18 01:08:00,42.8,31.0,30.17,ESE,116,0.0,-999.0,64,-99.99,,,0.00,weatherlink.com 1.10,2013-01-18 09:08:00,
2013-01-18 01:23:00,42.6,31.0,30.17,ESE,116,0.0,-999.0,65,-99.99,,,0.00,weatherlink.com 1.10,2013-01-18 09:23:00,
2013-01-18 01:38:00,42.5,31.0,30.17,ESE,116,0.0,-999.0,64,-99.99,,,0.00,weatherlink.com 1.10,2013-01-18 09:38:00,
2013-01-18 01:53:00,42.2,31.0,30.17,ESE,116,0.0,-999.0,64,-99.99,,,0.00,weatherlink.com 1.10,2013-01-18 09:53:00,
2013-01-18 02:08:00,41.8,31.0,30.17,ESE,116,0.0,-999.0,65,-99.99,,,0.00,weatherlink.com 1.10,2013-01-18 10:08:00,
2013-01-18 02:23:00,41.6,31.0,30.17,ESE,116,0.0,-999.0,65,-99.99,,,0.00,weatherlink.com 1.10,2013-01-18 10:23:00,
2013-01-18 02:38:00,41.3,31.0,30.17,ESE,116,0.0,-999.0,66,-99.99,,,0.00,weatherlink.com 1.10,2013-01-18 10:38:00,
2013-01-18 02:53:00,41.3,31.0,30.16,ESE,116,0.0,-999.0,67,-99.99,,,0.00,weatherlink.com 1.10,2013-01-18 10:53:00,
2013-01-18 03:08:00,41.2,31.0,30.16,ESE,117,0.0,-999.0,67,-99.99,,,0.00,weatherlink.com 1.10,2013-01-18 11:08:00,
2013-01-18 03:23:00,41.2,31.0,30.16,ESE,116,0.0,-999.0,68,-99.99,,,0.00,weatherlink.com 1.10,2013-01-18 11:23:00,
2013-01-18 03:38:00,40.8,31.0,30.16,ESE,116,0.0,-999.0,69,-99.99,,,0.00,weatherlink.com 1.10,2013-01-18 11:38:00,
2013-01-18 03:53:00,40.5,31.0,30.16,ESE,116,0.0,-999.0,70,-99.99,,,0.00,weatherlink.com 1.10,2013-01-18 11:53:00,
2013-01-18 04:08:00,40.3,31.0,30.16,ESE,116,0.0,-999.0,70,-99.99,,,0.00,weatherlink.com 1.10,2013-01-18 12:08:00,
2013-01-18 04:23:00,40.8,32.0,30.16,ESE,116,0.0,-999.0,71,-99.99,,,0.00,weatherlink.com 1.10,2013-01-18 12:23:00,
2013-01-18 04:38:00,41.1,33.0,30.16,ESE,117,0.0,-999.0,72,-99.99,,,0.00,weatherlink.com 1.10,2013-01-18 12:38:00,
2013-01-18 04:53:00,40.6,33.0,30.15,ESE,116,2.0,-999.0,73,-99.99,,,0.00,weatherlink.com 1.10,2013-01-18 12:53:00,
2013-01-18 05:08:00,42.1,33.0,30.15,SE,128,0.0,-999.0,71,-99.99,,,0.00,weatherlink.com 1.10,2013-01-18 13:08:00,
2013-01-18 05:23:00,44.6,34.0,30.15,South,188,0.0,-999.0,67,-99.99,,,0.00,weatherlink.com 1.10,2013-01-18 13:23:00,
2013-01-18 05:38:00,46.2,33.0,30.15,SE,143,0.0,-999.0,61,-99.99,,,0.00,weatherlink.com 1.10,2013-01-18 13:38:00,
2013-01-18 05:53:00,46.4,33.0,30.15,WSW,244,0.0,-999.0,60,-99.99,,,0.00,weatherlink.com 1.10,2013-01-18 13:53:00,
2013-01-18 06:08:00,46.5,32.0,30.15,SE,143,0.0,-999.0,57,-99.99,,,0.00,weatherlink.com 1.10,2013-01-18 14:08:00,
2013-01-18 06:23:00,46.8,32.0,30.15,WSW,250,0.0,-999.0,57,-99.99,,,0.00,weatherlink.com 1.10,2013-01-18 14:23:00,
2013-01-18 06:38:00,46.1,34.0,30.16,WSW,248,0.0,-999.0,63,-99.99,,,0.00,weatherlink.com 1.10,2013-01-18 14:38:00,
2013-01-18 06:53:00,44.5,34.0,30.16,WSW,248,0.0,-999.0,66,-99.99,,,0.00,weatherlink.com 1.10,2013-01-18 14:53:00,
2013-01-18 07:08:00,43.5,35.0,30.17,WSW,248,0.0,-999.0,72,-99.99,,,0.00,weatherlink.com 1.10,2013-01-18 15:08:00,
2013-01-18 07:23:00,43.1,36.0,30.17,WSW,248,0.0,-999.0,75,-99.99,,,0.00,weatherlink.com 1.10,2013-01-18 15:23:00,
2013-01-18 07:38:00,42.5,36.0,30.17,WSW,248,0.0,-999.0,77,-99.99,,,0.00,weatherlink.com 1.10,2013-01-18 15:38:00,
2013-01-18 07:53:00,42.1,36.0,30.18,WSW,248,0.0,-999.0,79,-99.99,,,0.00,weatherlink.com 1.10,2013-01-18 15:53:00,
2013-01-18 08:08:00,42.5,37.0,30.18,WSW,248,0.0,-999.0,81,-99.99,,,0.00,weatherlink.com 1.10,2013-01-18 16:08:00,
2013-01-18 08:23:00,43.6,38.0,30.19,WSW,248,0.0,-999.0,82,-99.99,,,0.00,weatherlink.com 1.10,2013-01-18 16:23:00,
2013-01-18 08:38:00,45.1,39.0,30.19,WSW,248,0.0,-999.0,79,-99.99,,,0.00,weatherlink.com 1.10,2013-01-18 16:38:00,
2013-01-18 08:53:00,46.4,39.0,30.20,WSW,248,0.0,-999.0,76,-99.99,,,0.00,weatherlink.com 1.10,2013-01-18 16:53:00,
2013-01-18 09:09:00,47.9,40.0,30.21,SW,222,0.0,-999.0,73,-99.99,,,0.00,weatherlink.com 1.10,2013-01-18 17:09:00,
2013-01-18 09:24:00,50.2,39.0,30.21,SW,223,0.0,-999.0,65,-99.99,,,0.00,weatherlink.com 1.10,2013-01-18 17:24:00,
2013-01-18 09:39:00,52.2,37.0,30.22,ESE,116,1.0,-999.0,57,-99.99,,,0.00,weatherlink.com 1.10,2013-01-18 17:39:00,
2013-01-18 09:54:00,54.2,34.0,30.22,SE,137,0.0,-999.0,47,-99.99,,,0.00,weatherlink.com 1.10,2013-01-18 17:54:00,
2013-01-18 10:09:00,57.0,29.0,30.22,ESE,107,6.0,-999.0,35,-99.99,,,0.00,weatherlink.com 1.10,2013-01-18 18:09:00,
2013-01-18 10:24:00,58.9,30.0,30.22,ESE,111,3.0,-999.0,33,-99.99,,,0.00,weatherlink.com 1.10,2013-01-18 18:24:00,
2013-01-18 10:39:00,59.5,30.0,30.21,SE,126,9.0,-999.0,33,-99.99,,,0.00,weatherlink.com 1.10,2013-01-18 18:39:00,
2013-01-18 10:54:00,60.4,30.0,30.20,SE,140,1.0,-999.0,32,-99.99,,,0.00,weatherlink.com 1.10,2013-01-18 18:54:00,
2013-01-18 11:09:00,61.3,30.0,30.20,SSE,150,1.0,-999.0,31,-99.99,,,0.00,weatherlink.com 1.10,2013-01-18 19:09:00,
2013-01-18 11:24:00,62.4,28.0,30.20,SSE,157,0.0,-999.0,27,-99.99,,,0.00,weatherlink.com 1.10,2013-01-18 19:24:00,
2013-01-18 11:39:00,62.6,27.0,30.19,East,84,1.0,-999.0,26,-99.99,,,0.00,weatherlink.com 1.10,2013-01-18 19:39:00,
2013-01-18 11:54:00,62.7,26.0,30.18,NE,34,4.0,-999.0,25,-99.99,,,0.00,weatherlink.com 1.10,2013-01-18 19:54:00,
2013-01-18 12:09:00,63.1,27.0,30.18,NE,34,3.0,-999.0,26,-99.99,,,0.00,weatherlink.com 1.10,2013-01-18 20:09:00,
2013-01-18 12:24:00,63.1,27.0,30.17,ENE,70,4.0,-999.0,26,-99.99,,,0.00,weatherlink.com 1.10,2013-01-18 20:24:00,
2013-01-18 12:39:00,63.7,28.0,30.16,ESE,123,6.0,-999.0,26,-99.99,,,0.00,weatherlink.com 1.10,2013-01-18 20:39:00,
2013-01-18 12:54:00,63.7,27.0,30.15,ESE,123,4.0,-999.0,25,-99.99,,,0.00,weatherlink.com 1.10,2013-01-18 20:54:00,
2013-01-18 13:09:00,64.0,27.0,30.15,South,171,5.0,-999.0,25,-99.99,,,0.00,weatherlink.com 1.10,2013-01-18 21:09:00,
2013-01-18 13:24:00,64.8,26.0,30.14,East,80,5.0,-999.0,23,-99.99,,,0.00,weatherlink.com 1.10,2013-01-18 21:24:00,
2013-01-18 13:39:00,65.3,28.0,30.14,ENE,58,2.0,-999.0,25,-99.99,,,0.00,weatherlink.com 1.10,2013-01-18 21:39:00,
2013-01-18 13:54:00,65.8,27.0,30.14,SE,126,1.0,-999.0,23,-99.99,,,0.00,weatherlink.com 1.10,2013-01-18 21:54:00,
2013-01-18 14:09:00,66.3,27.0,30.14,NW,321,4.0,-999.0,23,-99.99,,,0.00,weatherlink.com 1.10,2013-01-18 22:09:00,
2013-01-18 14:24:00,66.3,27.0,30.14,East,94,2.0,-999.0,23,-99.99,,,0.00,weatherlink.com 1.10,2013-01-18 22:24:00,
2013-01-18 14:39:00,66.4,25.0,30.14,ESE,107,0.0,-999.0,21,-99.99,,,0.00,weatherlink.com 1.10,2013-01-18 22:39:00,
2013-01-18 14:54:00,66.4,25.0,30.14,ENE,75,0.0,-999.0,21,-99.99,,,0.00,weatherlink.com 1.10,2013-01-18 22:54:00,
2013-01-18 15:09:00,66.3,26.0,30.13,East,79,2.0,-999.0,22,-99.99,,,0.00,weatherlink.com 1.10,2013-01-18 23:09:00,
2013-01-18 15:24:00,66.1,26.0,30.14,East,101,1.0,-999.0,22,-99.99,,,0.00,weatherlink.com 1.10,2013-01-18 23:24:00,
2013-01-18 15:39:00,65.5,27.0,30.14,NNE,27,1.0,-999.0,23,-99.99,,,0.00,weatherlink.com 1.10,2013-01-18 23:39:00,
2013-01-18 15:54:00,64.7,26.0,30.13,East,83,0.0,-999.0,23,-99.99,,,0.00,weatherlink.com 1.10,2013-01-18 23:54:00,
2013-01-18 16:09:00,64.0,26.0,30.12,NNE,13,0.0,-999.0,24,-99.99,,,0.00,weatherlink.com 1.10,2013-01-19 00:09:00,
2013-01-18 16:24:00,63.7,26.0,30.13,NE,51,4.0,-999.0,24,-99.99,,,0.00,weatherlink.com 1.10,2013-01-19 00:24:00,
2013-01-18 16:39:00,62.7,27.0,30.13,East,87,2.0,-999.0,26,-99.99,,,0.00,weatherlink.com 1.10,2013-01-19 00:39:00,
2013-01-18 16:54:00,61.8,25.0,30.13,ESE,120,1.0,-999.0,25,-99.99,,,0.00,weatherlink.com 1.10,2013-01-19 00:54:00,
2013-01-18 17:09:00,60.7,26.0,30.13,NE,44,0.0,-999.0,27,-99.99,,,0.00,weatherlink.com 1.10,2013-01-19 01:09:00,
2013-01-18 17:28:00,59.9,25.0,30.13,ENE,76,1.0,-999.0,26,-99.99,,,0.00,weatherlink.com 1.10,2013-01-19 01:28:00,
2013-01-18 17:39:00,59.3,25.0,30.13,SE,124,1.0,-999.0,27,-99.99,,,0.00,weatherlink.com 1.10,2013-01-19 01:39:00,
2013-01-18 17:54:00,59.2,26.0,30.13,NE,51,0.0,-999.0,28,-99.99,,,0.00,weatherlink.com 1.10,2013-01-19 01:54:00,
2013-01-18 18:09:00,58.6,25.0,30.14,NE,38,0.0,-999.0,27,-99.99,,,0.00,weatherlink.com 1.10,2013-01-19 02:09:00,
2013-01-18 18:25:00,58.4,25.0,30.14,ENE,73,3.0,-999.0,28,-99.99,,,0.00,weatherlink.com 1.10,2013-01-19 02:25:00,
2013-01-18 18:39:00,58.6,25.0,30.14,ENE,74,1.0,-999.0,27,-99.99,,,0.00,weatherlink.com 1.10,2013-01-19 02:39:00,
2013-01-18 18:55:00,58.4,23.0,30.14,East,86,0.0,-999.0,25,-99.99,,,0.00,weatherlink.com 1.10,2013-01-19 02:55:00,
2013-01-18 19:09:00,58.6,21.0,30.14,East,90,2.0,-999.0,23,-99.99,,,0.00,weatherlink.com 1.10,2013-01-19 03:09:00,
2013-01-18 19:25:00,58.4,21.0,30.14,ENE,65,1.0,-999.0,23,-99.99,,,0.00,weatherlink.com 1.10,2013-01-19 03:25:00,
2013-01-18 19:39:00,58.4,19.0,30.14,ENE,74,1.0,-999.0,22,-99.99,,,0.00,weatherlink.com 1.10,2013-01-19 03:39:00,
2013-01-18 19:54:00,58.3,19.0,30.14,ESE,123,1.0,-999.0,22,-99.99,,,0.00,weatherlink.com 1.10,2013-01-19 03:54:00,
2013-01-18 20:11:00,58.4,19.0,30.14,SE,124,0.0,-999.0,22,-99.99,,,0.00,weatherlink.com 1.10,2013-01-19 04:11:00,
2013-01-18 20:25:00,58.4,18.0,30.14,South,178,0.0,-999.0,21,-99.99,,,0.00,weatherlink.com 1.10,2013-01-19 04:25:00,
2013-01-18 20:40:00,57.0,24.0,30.14,South,178,0.0,-999.0,28,-99.99,,,0.00,weatherlink.com 1.10,2013-01-19 04:40:00,
2013-01-18 20:56:00,54.5,25.0,30.15,South,178,0.0,-999.0,32,-99.99,,,0.00,weatherlink.com 1.10,2013-01-19 04:56:00,
2013-01-18 21:11:00,52.3,27.0,30.15,South,178,0.0,-999.0,37,-99.99,,,0.00,weatherlink.com 1.10,2013-01-19 05:11:00,
2013-01-18 21:26:00,51.0,27.0,30.15,South,178,0.0,-999.0,39,-99.99,,,0.00,weatherlink.com 1.10,2013-01-19 05:26:00,
2013-01-18 21:41:00,50.2,26.0,30.15,South,178,0.0,-999.0,39,-99.99,,,0.00,weatherlink.com 1.10,2013-01-19 05:41:00,
2013-01-18 21:56:00,49.4,26.0,30.15,South,178,0.0,-999.0,41,-99.99,,,0.00,weatherlink.com 1.10,2013-01-19 05:56:00,
2013-01-18 22:11:00,48.5,26.0,30.15,South,178,0.0,-999.0,41,-99.99,,,0.00,weatherlink.com 1.10,2013-01-19 06:11:00,
2013-01-18 22:26:00,48.0,26.0,30.15,South,178,0.0,-999.0,43,-99.99,,,0.00,weatherlink.com 1.10,2013-01-19 06:26:00,
2013-01-18 22:41:00,47.6,27.0,30.16,South,178,0.0,-999.0,45,-99.99,,,0.00,weatherlink.com 1.10,2013-01-19 06:41:00,
2013-01-18 22:56:00,47.1,28.0,30.16,South,178,0.0,-999.0,47,-99.99,,,0.00,weatherlink.com 1.10,2013-01-19 06:56:00,
2013-01-18 23:11:00,46.4,27.0,30.16,South,178,0.0,-999.0,48,-99.99,,,0.00,weatherlink.com 1.10,2013-01-19 07:11:00,
2013-01-18 23:26:00,45.8,27.0,30.16,South,178,0.0,-999.0,49,-99.99,,,0.00,weatherlink.com 1.10,2013-01-19 07:26:00,
2013-01-18 23:41:00,45.5,28.0,30.15,South,178,0.0,-999.0,50,-99.99,,,0.00,weatherlink.com 1.10,2013-01-19 07:41:00,